STARLINK-1929 (46788 NORAD) Tracking and Keplerian Element Data
This shows tracking and keplerian element data for the satellite.
Feedback or suggestion? Click here.
Element | Value |
Catalog | 46788 |
Name | STARLINK-1929 |
Epoch Orbit | 1310 |
Epoch Day | 15.16667824 |
Epoch Year | 2021 |
RAAN | 116.2675 |
Inclination | 53.0543 |
Eccentricity | 0.0002314 |
Argument of Perigee | 29.5293 |
Mean Anonmoly | 107.7593 |
Mean Motion | 15.62697926 |
Decay Rate | 0.00064359 |
L1 | 1 46788U 20074BB 21015.16667824 .00064359 00000-0 70464-3 0 9996 |
L2 | 2 46788 53.0543 116.2675 0002314 29.5293 107.7593 15.62697926 13103 |
Live tracking and technical data element details for STARLINK-1929 (NORAD 46788). STARLINK-1929 can be tracked NOW for your location showing map with azimuth and elevation plus other details from your city location.
Track the satellite on the map from your city or location and see movement details for azimuth, elevation, latitude, longitude, range, height, and movement on the map or in text.
IsCatalogInMostPopularTable: catalog: 46788, numindb: 31
Update: records affected: 1
GetName: 46788 STARLINK-1929
Hit Count: updated at: Sat, 16 Jan 2021 00:37:03 GMT